Tracking 29781 objects as of 14-Oct-2024
HD Live streaming from Space Station
objects crossing your sky now

CZ-3B R/B

Track CZ-3B R/B now!
10-day predictions


NORAD ID: 41587
Int'l Code: 2016-037B
Perigee: 189.7 km
Apogee: 22,170.0 km
Inclination: 19.5 °
Period: 385.7 minutes
Semi major axis: 17550 km
RCS: Unknown
Launch date: June 12, 2016
Source: People's Republic of China (PRC)
Launch site: Xichang Space Center, China (XSC)

Note: This is a ROCKET BODY
Your satellite tracking list
Your tracking list is empty




NASA's NSSDC Master Catalog

Two Line Element Set (TLE):
1 41587U 16037B   24287.96118244  .00087961 -73244-7  19521-2 0  9999
2 41587  19.4859 289.8631 6261876 294.0973  14.1052  3.73384460 88805
Source of the keplerian elements: AFSPC